This is the latest recevied weather packets stored in our database for station/object DK6GC-10. If no packets are shown the sender has not sent any weather packets the latest 10 day(s).
| Time | Temp. | Humidity | Pressure | Rain* | Wind** | Luminosity | Snow |
|---|---|---|---|---|---|---|---|
| 1777743924 | 21.67° C | 51% | 1016.3 hPa | - | - | - | - |
| 1777743024 | 22.22° C | 52% | 1016.4 hPa | - | - | - | - |
| 1777742124 | 22.78° C | 46% | 1016.4 hPa | - | - | - | - |
| 1777741223 | 23.89° C | 44% | 1016.5 hPa | - | - | - | - |
| 1777740323 | 24.44° C | 41% | 1016.6 hPa | - | - | - | - |
| 1777739423 | 25° C | 39% | 1016.8 hPa | - | - | - | - |
| 1777738523 | 25.56° C | 39% | 1017 hPa | - | - | - | - |
| 1777737623 | 26.11° C | 34% | 1017.1 hPa | - | - | - | - |
| 1777736722 | 26.11° C | 35% | 1017.2 hPa | - | - | - | - |
| 1777735822 | 26.67° C | 35% | 1017.4 hPa | - | - | - | - |
| 1777734922 | 26.67° C | 34% | 1017.5 hPa | - | - | - | - |
| 1777734022 | 26.67° C | 34% | 1017.6 hPa | - | - | - | - |
| 1777733122 | 26.67° C | 35% | 1017.8 hPa | - | - | - | - |
| 1777732222 | 26.67° C | 32% | 1018.1 hPa | - | - | - | - |
| 1777731321 | 26.67° C | 33% | 1018.4 hPa | - | - | - | - |
| 1777730421 | 26.67° C | 35% | 1018.7 hPa | - | - | - | - |
| 1777729521 | 26.67° C | 36% | 1018.9 hPa | - | - | - | - |
| 1777728621 | 26.67° C | 34% | 1019.2 hPa | - | - | - | - |
| 1777727721 | 26.67° C | 34% | 1019.4 hPa | - | - | - | - |
| 1777726819 | 26.11° C | 36% | 1019.6 hPa | - | - | - | - |
| 1777725919 | 25.56° C | 34% | 1019.8 hPa | - | - | - | - |
| 1777725019 | 26.11° C | 36% | 1019.9 hPa | - | - | - | - |
| 1777724118 | 25.56° C | 36% | 1020.1 hPa | - | - | - | - |
| 1777723244 | 25° C | 35% | 1020.3 hPa | - | - | - | - |
| 1777722343 | 25° C | 37% | 1020.5 hPa | - | - | - | - |
* Rain since midnight (hover to see other rain measurements)
** Current wind speed in m/s (hover to see current wind gust speed)